ANA625 RJTT-RJFK

Flight info

Callsign ANA625
Flight time 1h 28m
Altitude 38000
Route LAXAS4 LAXAS Y56 TOHME Y54 TURFY Y24 SUC Y757 SPICA
Aircraft B77W/H-SDE1E2E3FGHIJ2J3J4J5M1RWXY/LB1D1

Departure

Time 2026-05-09 12:58
Airport Tokyo Haneda International Airport (RJTT)

Arrival

Time 2026-05-09 14:26
Airport Kagoshima Airport (RJFK)
Time Latitude Longitude Altitude Speed Heading
2026-05-09 12:22 35.55461 139.78879 32 ft 0 kts 329°
2026-05-09 12:42 35.55455 139.78883 31 ft 2 kts 330°
2026-05-09 12:43 35.55441 139.78893 29 ft 2 kts 332°
2026-05-09 12:43 35.55426 139.78902 30 ft 2 kts 334°
2026-05-09 12:43 35.55411 139.78911 30 ft 2 kts 336°
2026-05-09 12:43 35.55396 139.78918 31 ft 2 kts 340°
2026-05-09 12:44 35.55380 139.78924 30 ft 2 kts 346°
2026-05-09 12:44 35.55364 139.78928 31 ft 2 kts 353°
2026-05-09 12:44 35.55349 139.78930 31 ft 1 kts 341°
2026-05-09 12:44 35.55346 139.78931 31 ft 0 kts 335°
2026-05-09 12:47 35.55352 139.78928 30 ft 4 kts 335°
2026-05-09 12:47 35.55418 139.78951 32 ft 17 kts 54°
2026-05-09 12:48 35.55436 139.79083 31 ft 16 kts 117°
2026-05-09 12:48 35.55346 139.79157 31 ft 16 kts 152°
2026-05-09 12:48 35.55249 139.79224 31 ft 17 kts 150°
2026-05-09 12:48 35.55138 139.79302 30 ft 19 kts 150°
2026-05-09 12:49 35.55021 139.79384 31 ft 20 kts 150°
2026-05-09 12:49 35.54902 139.79469 32 ft 20 kts 150°
2026-05-09 12:49 35.54783 139.79554 31 ft 21 kts 150°
2026-05-09 12:49 35.54656 139.79643 28 ft 21 kts 150°
2026-05-09 12:50 35.54528 139.79735 28 ft 21 kts 149°
2026-05-09 12:50 35.54399 139.79826 27 ft 21 kts 150°
2026-05-09 12:50 35.54271 139.79917 25 ft 21 kts 150°
2026-05-09 12:50 35.54145 139.80007 29 ft 20 kts 149°
2026-05-09 12:51 35.54023 139.80094 25 ft 21 kts 150°
2026-05-09 12:51 35.53915 139.80170 31 ft 16 kts 150°
2026-05-09 12:51 35.53810 139.80179 30 ft 16 kts 198°
2026-05-09 12:51 35.53696 139.80189 27 ft 17 kts 173°
2026-05-09 12:52 35.53590 139.80235 33 ft 17 kts 148°
2026-05-09 12:52 35.53490 139.80307 36 ft 17 kts 150°
2026-05-09 12:52 35.53390 139.80378 41 ft 17 kts 150°
2026-05-09 12:52 35.53289 139.80449 45 ft 17 kts 150°
2026-05-09 12:53 35.53189 139.80520 49 ft 17 kts 150°
2026-05-09 12:53 35.53089 139.80591 52 ft 15 kts 150°
2026-05-09 12:53 35.52993 139.80574 50 ft 17 kts 229°
2026-05-09 12:53 35.52900 139.80459 52 ft 20 kts 221°
2026-05-09 12:54 35.52798 139.80342 48 ft 20 kts 223°
2026-05-09 12:54 35.52693 139.80227 50 ft 20 kts 221°
2026-05-09 12:54 35.52599 139.80142 52 ft 15 kts 186°
2026-05-09 12:54 35.52541 139.80181 51 ft 15 kts 131°
2026-05-09 12:55 35.52478 139.80269 51 ft 0 kts 132°
2026-05-09 12:55 35.52477 139.80271 51 ft 2 kts 132°
2026-05-09 12:55 35.52449 139.80308 51 ft 7 kts 130°
2026-05-09 12:55 35.52426 139.80357 50 ft 7 kts 105°
2026-05-09 12:56 35.52447 139.80401 52 ft 0 kts 40°
2026-05-09 12:57 35.52459 139.80413 56 ft 14 kts 40°
2026-05-09 12:57 35.52701 139.80685 50 ft 90 kts 43°
2026-05-09 12:58 35.53367 139.81431 54 ft 166 kts 42°
2026-05-09 12:58 35.54287 139.82457 608 ft 176 kts 41°
2026-05-09 12:58 35.55163 139.83440 1612 ft 170 kts 39°
2026-05-09 12:58 35.56061 139.84457 2203 ft 186 kts 45°
2026-05-09 12:59 35.56650 139.86026 2432 ft 225 kts 83°
2026-05-09 12:59 35.56296 139.88041 2680 ft 259 kts 111°
2026-05-09 12:59 35.55604 139.90123 3433 ft 266 kts 110°
2026-05-09 12:59 35.54944 139.92247 4393 ft 266 kts 116°
2026-05-09 13:00 35.53777 139.93995 5265 ft 266 kts 146°
2026-05-09 13:00 35.52083 139.94841 6248 ft 265 kts 173°
2026-05-09 13:00 35.50252 139.94761 7063 ft 266 kts 192°
2026-05-09 13:00 35.48410 139.94316 7804 ft 274 kts 193°
2026-05-09 13:01 35.46536 139.93834 8658 ft 275 kts 199°
2026-05-09 13:01 35.44872 139.92721 9356 ft 274 kts 226°
2026-05-09 13:01 35.43565 139.91028 10177 ft 275 kts 231°
2026-05-09 13:01 35.42237 139.89244 10640 ft 295 kts 231°
2026-05-09 13:02 35.40791 139.87296 10857 ft 324 kts 231°
2026-05-09 13:02 35.39202 139.85164 11143 ft 350 kts 231°
2026-05-09 13:02 35.37527 139.82931 11888 ft 361 kts 231°
2026-05-09 13:02 35.35803 139.80643 12908 ft 368 kts 231°
2026-05-09 13:03 35.34059 139.78331 14025 ft 372 kts 231°
2026-05-09 13:03 35.32299 139.75999 15074 ft 373 kts 231°
2026-05-09 13:03 35.30506 139.73696 16218 ft 375 kts 229°
2026-05-09 13:03 35.28552 139.71556 17308 ft 379 kts 226°
2026-05-09 13:04 35.26513 139.69483 18319 ft 383 kts 225°
2026-05-09 13:04 35.24444 139.67403 19204 ft 385 kts 226°
2026-05-09 13:04 35.22382 139.65312 20183 ft 385 kts 226°
2026-05-09 13:04 35.20334 139.63209 21179 ft 384 kts 227°
2026-05-09 13:05 35.18293 139.61094 21930 ft 385 kts 227°
2026-05-09 13:05 35.16238 139.58954 22008 ft 389 kts 227°
2026-05-09 13:05 35.14178 139.56808 22016 ft 389 kts 227°
2026-05-09 13:05 35.12121 139.54668 22020 ft 388 kts 227°
2026-05-09 13:06 35.10068 139.52533 22018 ft 386 kts 228°
2026-05-09 13:06 35.08328 139.50168 22038 ft 378 kts 241°
2026-05-09 13:06 35.07073 139.47319 22032 ft 376 kts 251°
2026-05-09 13:06 35.06359 139.44263 22035 ft 373 kts 260°
2026-05-09 13:07 35.05870 139.41155 22018 ft 373 kts 261°
2026-05-09 13:07 35.05394 139.38090 22020 ft 372 kts 261°
2026-05-09 13:07 35.04901 139.34991 22021 ft 371 kts 260°
2026-05-09 13:07 35.04396 139.31910 22022 ft 370 kts 260°
2026-05-09 13:08 35.03884 139.28842 22023 ft 369 kts 260°
2026-05-09 13:08 35.03367 139.25782 22025 ft 368 kts 260°
2026-05-09 13:08 35.02854 139.22735 22026 ft 367 kts 260°
2026-05-09 13:08 35.02347 139.19688 22029 ft 366 kts 260°
2026-05-09 13:09 35.01843 139.16647 22024 ft 366 kts 260°
2026-05-09 13:09 35.01337 139.13600 22223 ft 368 kts 260°
2026-05-09 13:09 35.00826 139.10524 23075 ft 370 kts 260°
2026-05-09 13:09 35.00316 139.07459 24020 ft 368 kts 259°
2026-05-09 13:10 34.99805 139.04399 24717 ft 370 kts 259°
2026-05-09 13:10 34.99287 139.01308 25301 ft 374 kts 259°
2026-05-09 13:10 34.98837 138.98168 25910 ft 378 kts 262°
2026-05-09 13:10 34.98594 138.94968 26569 ft 380 kts 264°
2026-05-09 13:11 34.98433 138.91741 27137 ft 383 kts 264°
2026-05-09 13:11 34.98270 138.88488 27716 ft 385 kts 264°
2026-05-09 13:11 34.98102 138.85216 28295 ft 387 kts 263°
2026-05-09 13:11 34.97932 138.81930 28766 ft 390 kts 263°
2026-05-09 13:12 34.97757 138.78612 29294 ft 393 kts 263°
2026-05-09 13:12 34.97577 138.75274 29788 ft 395 kts 263°
2026-05-09 13:12 34.97396 138.71926 30258 ft 397 kts 262°
2026-05-09 13:12 34.97215 138.68577 30799 ft 394 kts 262°
2026-05-09 13:13 34.97037 138.65267 31418 ft 389 kts 261°
2026-05-09 13:13 34.96860 138.61987 32014 ft 386 kts 261°
2026-05-09 13:13 34.96682 138.58732 32550 ft 383 kts 260°
2026-05-09 13:13 34.96504 138.55501 33050 ft 381 kts 259°
2026-05-09 13:14 34.96325 138.52285 33537 ft 379 kts 259°
2026-05-09 13:14 34.96147 138.49081 34036 ft 377 kts 258°
2026-05-09 13:16 34.94869 138.26573 35977 ft 383 kts 259°
2026-05-09 13:16 34.94679 138.23331 36200 ft 384 kts 259°
2026-05-09 13:16 34.94493 138.20130 36439 ft 384 kts 259°
2026-05-09 13:16 34.94304 138.16877 36685 ft 385 kts 259°
2026-05-09 13:17 34.94118 138.13628 36928 ft 384 kts 259°
2026-05-09 13:17 34.93927 138.10377 37188 ft 384 kts 260°
2026-05-09 13:17 34.93736 138.07133 37446 ft 384 kts 260°
2026-05-09 13:17 34.93545 138.03883 37669 ft 385 kts 260°
2026-05-09 13:18 34.93352 138.00629 37896 ft 385 kts 260°
2026-05-09 13:18 34.93158 137.97358 37999 ft 388 kts 260°
2026-05-09 13:18 34.92961 137.94074 38050 ft 389 kts 260°
2026-05-09 13:19 34.92572 137.87533 38082 ft 385 kts 260°
2026-05-09 13:19 34.92180 137.81055 38102 ft 382 kts 260°
2026-05-09 13:20 34.91807 137.74602 38113 ft 382 kts 261°
2026-05-09 13:20 34.91081 137.68243 38098 ft 377 kts 254°
2026-05-09 13:21 34.89751 137.62060 38121 ft 379 kts 249°
2026-05-09 13:21 34.87931 137.56042 38118 ft 383 kts 248°
2026-05-09 13:22 34.86067 137.49945 38106 ft 385 kts 248°
2026-05-09 13:22 34.84246 137.43803 38105 ft 386 kts 249°
2026-05-09 13:23 34.79881 137.28413 38114 ft 383 kts 249°
2026-05-09 13:24 34.78132 137.22302 38118 ft 382 kts 249°
2026-05-09 13:24 34.76382 137.16202 38120 ft 381 kts 249°
2026-05-09 13:25 34.74631 137.10114 38122 ft 381 kts 249°
2026-05-09 13:26 34.71971 137.00984 38130 ft 382 kts 246°
2026-05-09 13:26 34.69557 136.95236 38131 ft 383 kts 240°
2026-05-09 13:27 34.66655 136.89780 38128 ft 386 kts 234°
2026-05-09 13:27 34.63335 136.84643 38127 ft 387 kts 234°
2026-05-09 13:28 34.59979 136.79516 38132 ft 388 kts 234°
2026-05-09 13:28 34.56622 136.74370 38136 ft 389 kts 234°
2026-05-09 13:29 34.53263 136.69210 38144 ft 390 kts 234°
2026-05-09 13:29 34.49907 136.64052 38150 ft 390 kts 234°
2026-05-09 13:30 34.46541 136.58886 38156 ft 390 kts 234°
2026-05-09 13:30 34.43177 136.53729 38150 ft 391 kts 234°
2026-05-09 13:31 34.39804 136.48566 38160 ft 391 kts 234°
2026-05-09 13:31 34.36427 136.43405 38162 ft 391 kts 234°
2026-05-09 13:32 34.33050 136.38252 38178 ft 392 kts 234°
2026-05-09 13:32 34.27986 136.30535 38153 ft 392 kts 234°
2026-05-09 13:33 34.24580 136.25356 38170 ft 391 kts 233°
2026-05-09 13:33 34.21199 136.20224 38158 ft 390 kts 234°
2026-05-09 13:34 34.17844 136.15139 38163 ft 389 kts 233°
2026-05-09 13:34 34.14461 136.10013 38163 ft 392 kts 234°
2026-05-09 13:35 34.07771 135.99905 38171 ft 395 kts 233°
2026-05-09 13:36 34.04333 135.94724 38170 ft 397 kts 233°
2026-05-09 13:36 34.00894 135.89552 38176 ft 394 kts 233°
2026-05-09 13:37 33.97446 135.84395 38141 ft 396 kts 233°
2026-05-09 13:37 33.94004 135.79225 38166 ft 396 kts 234°
2026-05-09 13:38 33.90563 135.74042 38179 ft 396 kts 234°
2026-05-09 13:38 33.87112 135.68870 38152 ft 397 kts 233°
2026-05-09 13:39 33.83642 135.63682 38166 ft 399 kts 233°
2026-05-09 13:39 33.80156 135.58474 38157 ft 400 kts 233°
2026-05-09 13:40 33.76654 135.53260 38158 ft 401 kts 233°
2026-05-09 13:40 33.73143 135.48035 38153 ft 402 kts 233°
2026-05-09 13:41 33.69630 135.42813 38150 ft 402 kts 233°
2026-05-09 13:41 33.66112 135.37594 38153 ft 402 kts 233°
2026-05-09 13:42 33.62622 135.32422 38153 ft 401 kts 233°
2026-05-09 13:42 33.59107 135.27219 38153 ft 401 kts 233°
2026-05-09 13:43 33.55589 135.22020 38156 ft 402 kts 233°
2026-05-09 13:43 33.52063 135.16816 38156 ft 402 kts 233°
2026-05-09 13:44 33.48531 135.11611 38154 ft 403 kts 233°
2026-05-09 13:44 33.44993 135.06404 38156 ft 403 kts 234°
2026-05-09 13:45 33.41447 135.01192 38166 ft 404 kts 233°
2026-05-09 13:45 33.37898 134.95970 38162 ft 405 kts 234°
2026-05-09 13:46 33.34348 134.90728 38176 ft 406 kts 234°
2026-05-09 13:46 33.30791 134.85484 38178 ft 406 kts 234°
2026-05-09 13:47 33.27226 134.80237 38174 ft 407 kts 234°
2026-05-09 13:47 33.23653 134.74984 38168 ft 408 kts 234°
2026-05-09 13:48 33.20074 134.69731 38167 ft 408 kts 234°
2026-05-09 13:48 33.17048 134.64054 38176 ft 405 kts 244°
2026-05-09 13:49 33.14719 134.57944 38164 ft 405 kts 251°
2026-05-09 13:49 33.13108 134.51503 38172 ft 406 kts 253°
2026-05-09 13:50 33.11563 134.45073 38175 ft 406 kts 253°
2026-05-09 13:50 33.09966 134.38557 38179 ft 407 kts 253°
2026-05-09 13:51 33.08372 134.32133 38176 ft 407 kts 253°
2026-05-09 13:51 33.06760 134.25652 38175 ft 408 kts 253°
2026-05-09 13:52 33.05163 134.19171 38179 ft 408 kts 254°
2026-05-09 13:52 33.03596 134.12675 38179 ft 408 kts 254°
2026-05-09 13:53 33.02027 134.06186 38178 ft 407 kts 254°
2026-05-09 13:53 33.00454 133.99708 38176 ft 407 kts 254°
2026-05-09 13:54 32.98875 133.93231 38177 ft 407 kts 254°
2026-05-09 13:54 32.97295 133.86764 38173 ft 407 kts 254°
2026-05-09 13:55 32.95980 133.81393 38173 ft 407 kts 254°
2026-05-09 13:55 32.94394 133.74931 38174 ft 407 kts 254°
2026-05-09 13:56 32.92804 133.68470 38170 ft 406 kts 254°
2026-05-09 13:56 32.91214 133.62017 38172 ft 407 kts 254°
2026-05-09 13:57 32.89617 133.55562 38172 ft 407 kts 254°
2026-05-09 13:57 32.88010 133.49103 38174 ft 407 kts 254°
2026-05-09 13:58 32.86399 133.42646 38167 ft 407 kts 254°
2026-05-09 13:58 32.84785 133.36184 38173 ft 408 kts 255°
2026-05-09 13:59 32.83167 133.29723 38173 ft 408 kts 255°
2026-05-09 13:59 32.81545 133.23263 38170 ft 408 kts 255°
2026-05-09 14:00 32.80195 133.17896 38170 ft 408 kts 255°
2026-05-09 14:00 32.78295 133.10352 38169 ft 407 kts 255°
2026-05-09 14:01 32.76660 133.03910 38171 ft 407 kts 253°
2026-05-09 14:01 32.74472 132.97691 38182 ft 409 kts 246°
2026-05-09 14:02 32.71642 132.91845 38170 ft 412 kts 243°
2026-05-09 14:02 32.68632 132.86009 38169 ft 411 kts 243°
2026-05-09 14:03 32.65653 132.80225 38168 ft 411 kts 243°
2026-05-09 14:03 32.62680 132.74432 38165 ft 411 kts 243°
2026-05-09 14:04 32.59732 132.68685 38165 ft 410 kts 243°
2026-05-09 14:04 32.56766 132.62911 38168 ft 410 kts 243°
2026-05-09 14:05 32.53795 132.57135 38166 ft 411 kts 243°
2026-05-09 14:05 32.50813 132.51348 37658 ft 419 kts 243°
2026-05-09 14:06 32.49286 132.48382 36983 ft 421 kts 242°
2026-05-09 14:06 32.47760 132.45428 36195 ft 420 kts 242°
2026-05-09 14:06 32.46238 132.42485 35380 ft 419 kts 242°
2026-05-09 14:06 32.44714 132.39541 34523 ft 421 kts 242°
2026-05-09 14:07 32.43181 132.36578 33538 ft 423 kts 242°
2026-05-09 14:07 32.41640 132.33602 32542 ft 425 kts 242°
2026-05-09 14:07 32.40094 132.30620 31542 ft 427 kts 242°
2026-05-09 14:07 32.38544 132.27632 30791 ft 424 kts 242°
2026-05-09 14:08 32.37003 132.24666 30020 ft 422 kts 242°
2026-05-09 14:08 32.35471 132.21719 29195 ft 419 kts 242°
2026-05-09 14:08 32.33951 132.18797 28464 ft 416 kts 242°
2026-05-09 14:08 32.32442 132.15901 27780 ft 412 kts 242°
2026-05-09 14:09 32.30946 132.13029 27098 ft 409 kts 242°
2026-05-09 14:09 32.29461 132.10179 26428 ft 405 kts 242°
2026-05-09 14:09 32.27989 132.07354 25790 ft 403 kts 242°
2026-05-09 14:09 32.26523 132.04545 25150 ft 401 kts 242°
2026-05-09 14:10 32.23609 131.98963 23873 ft 398 kts 242°
2026-05-09 14:10 32.22159 131.96188 23152 ft 397 kts 242°
2026-05-09 14:10 32.20712 131.93421 22508 ft 394 kts 241°
2026-05-09 14:11 32.19275 131.90676 21859 ft 392 kts 241°
2026-05-09 14:11 32.17845 131.87946 21241 ft 390 kts 241°
2026-05-09 14:11 32.16421 131.85230 20656 ft 388 kts 241°
2026-05-09 14:11 32.15004 131.82531 20100 ft 386 kts 240°
2026-05-09 14:12 32.13592 131.79841 19686 ft 388 kts 240°
2026-05-09 14:12 32.12154 131.77101 19248 ft 397 kts 240°
2026-05-09 14:12 32.10690 131.74312 18787 ft 402 kts 240°
2026-05-09 14:12 32.09236 131.71547 18312 ft 401 kts 240°
2026-05-09 14:13 32.07752 131.68727 17808 ft 399 kts 240°
2026-05-09 14:14 31.97727 131.49724 14697 ft 385 kts 239°
2026-05-09 14:15 31.96311 131.47046 14273 ft 385 kts 239°
2026-05-09 14:15 31.94896 131.44373 13827 ft 384 kts 239°
2026-05-09 14:15 31.93482 131.41712 13355 ft 383 kts 239°
2026-05-09 14:15 31.92064 131.39055 12813 ft 384 kts 239°
2026-05-09 14:16 31.90646 131.36400 12308 ft 381 kts 239°
2026-05-09 14:16 31.89247 131.33786 11868 ft 375 kts 239°
2026-05-09 14:16 31.87870 131.31211 11449 ft 369 kts 239°
2026-05-09 14:16 31.86519 131.28683 11036 ft 363 kts 238°
2026-05-09 14:17 31.85181 131.26183 10627 ft 358 kts 238°
2026-05-09 14:17 31.83861 131.23716 10231 ft 354 kts 238°
2026-05-09 14:17 31.82558 131.21283 9849 ft 349 kts 238°
2026-05-09 14:17 31.81286 131.18911 9572 ft 334 kts 238°
2026-05-09 14:18 31.80098 131.16695 9206 ft 308 kts 238°
2026-05-09 14:18 31.78995 131.14639 8832 ft 292 kts 238°
2026-05-09 14:18 31.77915 131.12625 8408 ft 287 kts 238°
2026-05-09 14:18 31.76868 131.10677 8056 ft 276 kts 238°
2026-05-09 14:19 31.75866 131.08812 7749 ft 265 kts 238°
2026-05-09 14:19 31.74893 131.07001 7470 ft 264 kts 238°
2026-05-09 14:19 31.73895 131.05142 7180 ft 274 kts 237°
2026-05-09 14:19 31.72870 131.03234 6875 ft 278 kts 237°
2026-05-09 14:20 31.71844 131.01324 6522 ft 273 kts 237°
2026-05-09 14:20 31.70850 130.99473 6206 ft 263 kts 237°
2026-05-09 14:20 31.69890 130.97688 5899 ft 255 kts 237°
2026-05-09 14:21 31.67966 130.94113 5329 ft 259 kts 237°
2026-05-09 14:21 31.67046 130.92361 5024 ft 252 kts 243°
2026-05-09 14:21 31.66506 130.90437 4737 ft 248 kts 257°
2026-05-09 14:21 31.66156 130.88437 4482 ft 251 kts 259°
2026-05-09 14:22 31.65984 130.86439 4188 ft 242 kts 279°
2026-05-09 14:22 31.66461 130.84620 3924 ft 227 kts 290°
2026-05-09 14:22 31.66983 130.82917 3648 ft 216 kts 289°
2026-05-09 14:22 31.67473 130.81303 3408 ft 204 kts 292°
2026-05-09 14:23 31.68292 130.80070 3143 ft 188 kts 329°
2026-05-09 14:23 31.69429 130.79346 3018 ft 183 kts 329°
2026-05-09 14:23 31.70499 130.78607 2804 ft 175 kts 328°
2026-05-09 14:23 31.71529 130.77905 2611 ft 164 kts 328°
2026-05-09 14:24 31.72552 130.77211 2413 ft 173 kts 328°
2026-05-09 14:24 31.73582 130.76515 2170 ft 168 kts 329°
2026-05-09 14:24 31.74558 130.75854 1932 ft 155 kts 329°
2026-05-09 14:24 31.75456 130.75246 1746 ft 148 kts 329°
2026-05-09 14:25 31.76351 130.74639 1575 ft 147 kts 329°
2026-05-09 14:25 31.77228 130.74045 1359 ft 144 kts 329°
2026-05-09 14:25 31.78097 130.73456 1162 ft 144 kts 329°
2026-05-09 14:25 31.78964 130.72862 960 ft 144 kts 329°
2026-05-09 14:26 31.79786 130.72306 885 ft 115 kts 330°
2026-05-09 14:26 31.80282 130.71973 897 ft 52 kts 330°
2026-05-09 14:26 31.80535 130.71804 902 ft 35 kts 330°
2026-05-09 14:26 31.80721 130.71671 905 ft 27 kts 324°
2026-05-09 14:27 31.80833 130.71528 908 ft 14 kts 305°
2026-05-09 14:27 31.80852 130.71421 909 ft 12 kts 247°
2026-05-09 14:27 31.80806 130.71404 908 ft 7 kts 165°
2026-05-09 14:27 31.80756 130.71433 907 ft 9 kts 153°
2026-05-09 14:28 31.80688 130.71477 908 ft 15 kts 151°
2026-05-09 14:28 31.80561 130.71566 903 ft 24 kts 150°
2026-05-09 14:28 31.80451 130.71638 901 ft 17 kts 151°
2026-05-09 14:28 31.80377 130.71687 897 ft 13 kts 150°
2026-05-09 14:29 31.80301 130.71735 898 ft 9 kts 165°
2026-05-09 14:29 31.80276 130.71735 898 ft 5 kts 187°
2026-05-09 14:29 31.80250 130.71707 898 ft 6 kts 236°
2026-05-09 14:29 31.80230 130.71660 898 ft 4 kts 244°
2026-05-09 14:30 31.80216 130.71625 900 ft 5 kts 244°
2026-05-09 14:30 31.80213 130.71619 900 ft 0 kts 243°